Location: New Frontier Mobile Home Park
(32.8448°N, 116.9675°W)
Time: 23:17:43
(UTC+00:00)

Cosmos 1371 Rocket - Pass Details

Date: 14 July 2020
Orbit: 753 x 790 km, 74.0° (Epoch: 05 August)

Event Time Altitude Azimuth Distance (km) Brightness Sun altitude
Rises 05:36:40 0° 343° (NNW) 3,258 8.4 -26.5°
Reaches altitude 10° 05:39:03 10° 344° (NNW) 2,332 7.4 -26.8°
Enters shadow 05:44:12 85° 353° (N) 790 3.9 -27.4°
